EW2575 Weather Reports


Display with metric or nautical units.
time (UTC)temp
F
wind
direction
speed
MPH
gust
MPH
rain 1hr
in
rain 24hr
in
rain mn
in
humidity
%
barometer
mb
20260506185036 60 288 1.0 6.0 0.00 0.09 0.09 96 1013.5
20260506184533 60 264 3.0 6.0 0.00 0.09 0.09 96 1013.4
20260506184034 60 271 4.0 6.0 0.00 0.09 0.09 96 1013.4
20260506183533 61 253 2.0 8.0 0.00 0.09 0.09 96 1013.3
20260506183041 60 269 5.0 8.0 0.00 0.09 0.09 96 1013.3
20260506182532 60 266 4.0 9.0 0.00 0.09 0.09 96 1013.4
20260506182032 61 282 6.0 9.0 0.00 0.09 0.09 96 1013.3
20260506181531 61 286 6.0 10.0 0.00 0.09 0.09 96 1013.3
20260506181032 61 253 7.0 10.0 0.00 0.09 0.09 95 1013.3
20260506180532 61 269 6.0 8.0 0.00 0.09 0.09 95 1013.3
20260506180035 62 258 4.0 8.0 0.00 0.09 0.09 95 1013.3
20260506175532 62 262 3.0 7.0 0.00 0.09 0.09 95 1013.2
20260506175029 61 271 2.0 7.0 0.00 0.09 0.09 95 1013.2
20260506174530 61 219 4.0 7.0 0.00 0.09 0.09 95 1013.2
20260506174029 61 254 3.0 8.0 0.00 0.09 0.09 95 1013.3
20260506173529 61 286 4.0 8.0 0.00 0.09 0.09 95 1013.2
20260506173029 61 265 5.0 9.0 0.00 0.09 0.09 95 1013.2
20260506172528 61 279 5.0 9.0 0.00 0.09 0.09 94 1013.3
20260506172031 61 249 4.0 10.0 0.00 0.09 0.09 95 1013.3
20260506171531 61 266 7.0 10.0 0.00 0.09 0.09 94 1013.2
20260506171031 62 249 6.0 9.0 0.00 0.09 0.09 94 1013.2
20260506170527 62 233 4.0 10.0 0.00 0.09 0.09 95 1013.2
20260506170032 61 236 6.0 10.0 0.00 0.09 0.09 94 1013.3
20260506165526 62 265 7.0 10.0 0.00 0.09 0.09 95 1013.3
20260506165026 62 250 7.0 10.0 0.01 0.09 0.09 95 1013.4
20260506164525 62 244 6.0 10.0 0.01 0.09 0.09 95 1013.4
20260506164030 62 251 6.0 10.0 0.01 0.09 0.09 95 1013.3
20260506163528 62 250 4.0 7.0 0.01 0.09 0.09 95 1013.4
20260506163026 62 246 4.0 7.0 0.01 0.09 0.09 95 1013.4
20260506162526 62 256 3.0 7.0 0.01 0.09 0.09 95 1013.3
20260506162028 62 238 3.0 7.0 0.01 0.09 0.09 95 1013.3
20260506161525 62 284 3.0 8.0 0.01 0.09 0.09 95 1013.4
20260506161023 62 225 4.0 8.0 0.01 0.09 0.09 95 1013.5
20260506160525 62 225 5.0 8.0 0.02 0.09 0.09 95 1013.5
20260506160023 62 213 5.0 8.0 0.02 0.09 0.09 95 1013.5
20260506155527 62 215 4.0 7.0 0.01 0.09 0.09 94 1013.6
20260506155023 62 203 2.0 6.0 0.02 0.09 0.09 94 1013.8
20260506154523 62 207 2.0 6.0 0.02 0.09 0.09 95 1013.9
20260506154023 62 250 2.0 5.0 0.03 0.09 0.09 94 1013.9
20260506153523 61 125 0.0 3.0 0.04 0.09 0.09 95 1013.9
20260506153022 61 125 1.0 5.0 0.05 0.09 0.09 94 1014.0
20260506152521 61 158 1.0 5.0 0.06 0.09 0.09 94 1014.0
20260506152023 61 169 2.0 6.0 0.06 0.09 0.09 94 1014.0
20260506151521 61 173 2.0 6.0 0.06 0.09 0.09 94 1014.1
20260506151020 61 240 1.0 3.0 0.06 0.09 0.09 94 1014.1
20260506150520 61 239 0.0 2.0 0.05 0.08 0.08 95 1014.2
20260506150020 61 239 0.0 2.0 0.05 0.08 0.08 94 1014.3
20260506145520 61 239 0.0 3.0 0.05 0.08 0.08 94 1014.3
20260506145019 61 239 1.0 4.0 0.03 0.06 0.06 94 1014.3
20260506144520 61 239 2.0 6.0 0.03 0.06 0.06 93 1014.3
20260506144022 61 311 3.0 7.0 0.02 0.06 0.06 94 1014.3
20260506143519 61 285 4.0 7.0 0.02 0.05 0.05 93 1014.3
20260506143029 61 249 3.0 5.0 0.01 0.04 0.04 93 1014.3
20260506142521 61 269 3.0 9.0 0.00 0.03 0.03 93 1014.4
20260506142024 61 269 6.0 9.0 0.00 0.03 0.03 92 1014.4
20260506141520 61 287 5.0 9.0 0.00 0.03 0.03 92 1014.3
20260506141024 62 272 6.0 8.0 0.00 0.03 0.03 92 1014.3
20260506140518 62 273 4.0 9.0 0.00 0.03 0.03 92 1014.3
20260506140019 62 287 5.0 9.0 0.00 0.03 0.03 92 1014.2
20260506135517 62 292 2.0 9.0 0.00 0.03 0.03 92 1014.2
20260506135017 62 292 2.0 8.0 0.00 0.03 0.03 92 1014.2
20260506134518 62 286 2.0 8.0 0.00 0.03 0.03 93 1014.2
20260506134017 62 261 4.0 8.0 0.00 0.03 0.03 93 1014.2
20260506133517 62 248 4.0 8.0 0.00 0.03 0.03 93 1014.2
20260506133017 62 274 5.0 8.0 0.00 0.03 0.03 93 1014.2
20260506132516 62 282 4.0 7.0 0.00 0.03 0.03 93 1014.2
20260506132020 62 267 4.0 8.0 0.00 0.03 0.03 93 1014.4
20260506131516 62 281 5.0 8.0 0.00 0.03 0.03 93 1014.4
20260506131016 62 310 2.0 9.0 0.00 0.03 0.03 93 1014.4
20260506130520 62 264 3.0 9.0 0.00 0.03 0.03 93 1014.4
20260506130016 62 278 3.0 7.0 0.00 0.03 0.03 93 1014.4
20260506125515 62 266 4.0 7.0 0.00 0.03 0.03 94 1014.4
20260506125014 62 295 2.0 8.0 0.00 0.03 0.03 94 1014.4
20260506124514 62 296 5.0 8.0 0.00 0.03 0.03 94 1014.4
20260506124014 62 259 4.0 8.0 0.00 0.03 0.03 95 1014.4
20260506123514 62 273 2.0 8.0 0.00 0.03 0.03 95 1014.6
20260506123014 62 265 3.0 8.0 0.00 0.03 0.03 95 1014.5
20260506122514 62 264 4.0 9.0 0.00 0.03 0.03 95 1014.7
20260506122017 61 265 6.0 10.0 0.00 0.03 0.03 95 1014.6
20260506121521 62 265 7.0 10.0 0.00 0.03 0.03 95 1014.7
20260506121013 62 241 5.0 9.0 0.00 0.03 0.03 95 1014.7
20260506120514 61 274 6.0 10.0 0.00 0.03 0.03 95 1014.7
20260506120013 62 282 5.0 8.0 0.00 0.03 0.03 95 1014.8
20260506115513 62 259 3.0 8.0 0.00 0.03 0.03 95 1014.8
20260506115012 62 268 5.0 8.0 0.00 0.03 0.03 95 1014.8
20260506114512 61 244 3.0 9.0 0.00 0.03 0.03 95 1014.8
20260506114013 61 271 6.0 9.0 0.00 0.03 0.03 95 1014.8
20260506113512 62 294 5.0 9.0 0.00 0.03 0.03 95 1014.9
20260506113023 61 256 6.0 10.0 0.00 0.03 0.03 94 1014.9
20260506112514 61 265 7.0 10.0 0.00 0.03 0.03 94 1015.0
20260506112013 62 269 5.0 10.0 0.00 0.03 0.03 94 1015.0
20260506111510 62 272 6.0 11.0 0.00 0.03 0.03 94 1015.0
20260506111013 62 275 7.0 11.0 0.00 0.03 0.03 94 1014.8
20260506110508 62 273 7.0 11.0 0.00 0.03 0.03 94 1014.7
20260506110011 62 288 6.0 11.0 0.00 0.03 0.03 94 1014.8
20260506105508 62 268 7.0 11.0 0.00 0.03 0.03 94 1014.8
20260506105007 63 257 5.0 8.0 0.00 0.03 0.03 94 1014.7
20260506104507 62 284 4.0 7.0 0.00 0.03 0.03 94 1014.7
20260506104007 62 289 2.0 7.0 0.00 0.03 0.03 94 1014.7
20260506103507 62 277 2.0 7.0 0.00 0.03 0.03 94 1014.7
20260506103011 62 281 3.0 6.0 0.00 0.03 0.03 94 1014.8
20260506102507 62 293 2.0 6.0 0.00 0.03 0.03 94 1014.8
20260506102006 62 286 3.0 6.0 0.00 0.03 0.03 93 1014.8
20260506101506 62 295 2.0 5.0 0.00 0.03 0.03 93 1014.8
20260506101006 62 270 1.0 6.0 0.00 0.03 0.03 93 1014.7
20260506100505 63 273 3.0 6.0 0.00 0.03 0.03 93 1014.7
20260506100008 63 279 3.0 6.0 0.00 0.03 0.03 93 1014.7
20260506095505 63 308 2.0 6.0 0.00 0.03 0.03 92 1014.7
20260506095002 63 305 1.0 6.0 0.00 0.03 0.03 92 1014.6
20260506094502 63 273 3.0 6.0 0.00 0.03 0.03 92 1014.7
20260506094101 62 316 1.0 4.0 0.00 0.03 0.03 92 1014.7
20260506093600 62 277 2.0 4.0 0.00 0.03 0.03 92 1014.7
20260506093100 62 263 1.0 3.0 0.00 0.03 0.03 92 1014.7
20260506092559 62 229 1.0 4.0 0.00 0.03 0.03 92 1014.7
20260506092059 62 284 0.0 3.0 0.00 0.03 0.03 92 1014.7
20260506091607 62 300 1.0 4.0 0.00 0.03 0.03 92 1014.6
20260506091059 62 300 2.0 4.0 0.00 0.03 0.03 92 1014.6
20260506090557 62 101 2.0 4.0 0.00 0.03 0.03 92 1014.6
20260506090059 62 101 2.0 4.0 0.00 0.03 0.03 92 1014.5
20260506085556 61 101 0.0 4.0 0.00 0.03 0.03 92 1014.6
20260506085056 61 101 2.0 3.0 0.00 0.03 0.03 93 1014.5
20260506084614 61 101 0.0 3.0 0.00 0.03 0.03 93 1014.5
20260506084056 61 101 0.0 0.0 0.00 0.03 0.03 93 1014.5
20260506083555 61 101 0.0 0.0 0.00 0.03 0.03 93 1014.5
20260506083054 61 101 0.0 0.0 0.00 0.03 0.03 93 1014.5
20260506082554 61 101 0.0 0.0 0.00 0.03 0.03 93 1014.5
20260506082052 61 101 0.0 0.0 0.00 0.03 0.03 93 1014.5
20260506081552 61 101 0.0 0.0 0.00 0.03 0.03 93 1014.4
20260506081052 60 101 0.0 0.0 0.00 0.03 0.03 93 1014.4
20260506080551 60 101 0.0 0.0 0.00 0.03 0.03 93 1014.4
20260506073055 60 101 0.0 0.0 0.00 0.03 0.03 92 1014.1
20260506072547 60 101 0.0 0.0 0.00 0.03 0.03 92 1014.2
20260506072046 60 101 0.0 0.0 0.00 0.03 0.03 92 1014.1
20260506071547 60 101 0.0 0.0 0.00 0.03 0.03 92 1014.0
20260506071045 60 101 0.0 0.0 0.00 0.03 0.03 92 1014.0
20260506070547 60 101 0.0 2.0 0.01 0.03 0.03 91 1014.0
20260506062039 59 115 3.0 6.0 0.03 0.03 0.03 91 1013.5
20260506061553 59 109 1.0 4.0 0.03 0.03 0.03 91 1013.6
20260506061040 59 123 2.0 4.0 0.03 0.03 0.03 91 1013.6
20260506060538 59 111 3.0 6.0 0.02 0.02 0.02 91 1013.6
20260506051038 60 327 0.0 2.0 0.00 0.00 0.00 90 1013.6
20260506050537 60 327 0.0 3.0 0.00 0.00 0.00 90 1013.6
20260506045036 60 100 0.0 2.0 0.00 0.00 0.00 89 1013.5
20260506044545 60 100 0.0 4.0 0.00 0.00 0.00 89 1013.4
20260506044035 60 100 2.0 4.0 0.00 0.00 0.00 89 1013.4
20260506043535 60 100 2.0 6.0 0.00 0.00 0.00 89 1013.4
20260506043040 60 113 3.0 4.0 0.00 0.00 0.00 89 1013.5
20260506042534 60 105 2.0 4.0 0.00 0.00 0.00 89 1013.5
20260506042034 60 115 2.0 4.0 0.00 0.00 0.00 89 1013.5
20260506041535 60 80 2.0 4.0 0.00 0.00 0.00 89 1013.5
20260506041033 60 107 2.0 4.0 0.00 0.00 0.00 89 1013.5
20260506040532 60 103 3.0 4.0 0.00 0.00 0.00 89 1013.6
20260506040032 59 115 2.0 4.0 0.00 0.00 0.00 89 1013.6
20260506035532 59 111 3.0 6.0 0.00 0.00 0.00 89 1013.6
20260506035032 59 98 3.0 8.0 0.00 0.00 0.00 89 1013.6
20260506034533 59 89 4.0 8.0 0.00 0.00 0.00 89 1013.5
20260506034031 59 102 5.0 9.0 0.00 0.00 0.00 89 1013.5
20260506033531 58 103 6.0 9.0 0.00 0.00 0.00 89 1013.5
20260506033032 59 96 6.0 9.0 0.00 0.00 0.00 89 1013.5
20260506032532 59 101 5.0 8.0 0.00 0.00 0.00 90 1013.6
20260506032030 59 116 5.0 8.0 0.00 0.00 0.00 92 1013.6
20260506031542 59 124 5.0 9.0 0.00 0.00 0.00 89 1013.7
20260506031028 59 112 6.0 10.0 0.00 0.00 0.00 89 1013.7
20260506030528 59 102 7.0 10.0 0.00 0.00 0.00 89 1013.8
20260506030030 58 96 8.0 10.0 0.00 0.00 0.00 89 1013.8
20260506025526 59 118 6.0 8.0 0.00 0.00 0.00 90 1013.9
20260506025028 59 117 6.0 8.0 0.00 0.00 0.00 90 1013.9
20260506024538 59 102 5.0 8.0 0.00 0.00 0.00 90 1013.9
20260506024024 59 99 5.0 8.0 0.00 0.00 0.00 90 1013.9
20260506023524 59 116 4.0 5.0 0.00 0.00 0.00 90 1013.9
20260506023021 60 106 2.0 4.0 0.00 0.00 0.00 90 1014.0
20260506022521 59 106 3.0 4.0 0.00 0.00 0.00 89 1014.1
20260506022022 59 106 1.0 3.0 0.00 0.00 0.00 89 1014.1
20260506021520 59 106 0.0 0.0 0.00 0.00 0.00 89 1014.1
20260506021019 60 106 0.0 0.0 0.00 0.00 0.00 88 1014.1
20260506020519 60 106 0.0 0.0 0.00 0.00 0.00 88 1014.1
20260506020018 60 106 0.0 0.0 0.00 0.00 0.00 88 1014.2
20260506015518 60 106 0.0 0.0 0.00 0.00 0.00 87 1014.2
20260506015019 60 106 0.0 0.0 0.00 0.00 0.00 87 1014.2
20260506014520 60 106 0.0 0.0 0.00 0.00 0.00 87 1014.2
20260506014023 60 106 0.0 0.0 0.00 0.00 0.00 86 1014.3
20260506013516 60 106 0.0 0.0 0.00 0.00 0.00 86 1014.3
20260506013016 60 106 0.0 2.0 0.00 0.00 0.00 86 1014.3
20260506012515 60 106 0.0 2.0 0.00 0.00 0.00 87 1014.3
20260506012018 60 106 0.0 4.0 0.00 0.00 0.00 87 1014.4
20260506011514 60 106 2.0 4.0 0.00 0.00 0.00 86 1014.4
20260506011015 60 106 2.0 6.0 0.00 0.00 0.00 86 1014.4
20260506010513 60 106 3.0 6.0 0.00 0.00 0.00 86 1014.4
20260506010013 60 117 3.0 6.0 0.00 0.00 0.00 86 1014.4
20260506005513 60 105 3.0 6.0 0.00 0.00 0.00 87 1014.5
20260506005011 60 105 2.0 4.0 0.00 0.00 0.00 87 1014.6
20260506004511 60 105 2.0 4.0 0.00 0.00 0.00 87 1014.6
20260506004011 60 105 3.0 4.0 0.00 0.00 0.00 87 1014.7
20260506003510 60 105 2.0 4.0 0.00 0.00 0.00 87 1014.8
20260506003010 60 105 3.0 6.0 0.00 0.00 0.00 87 1014.9
20260506002509 60 117 3.0 6.0 0.00 0.00 0.00 88 1014.9
20260506002008 61 86 1.0 2.0 0.00 0.00 0.00 89 1014.9
20260506001508 61 86 1.0 2.0 0.00 0.00 0.00 88 1014.9
20260506001007 61 86 1.0 3.0 0.00 0.00 0.00 88 1015.0
20260506000506 61 86 2.0 3.0 0.00 0.00 0.00 88 1015.0
20260506000007 61 86 0.0 3.0 0.00 0.00 0.00 87 1015.1
20260505235506 61 86 0.0 3.0 0.00 0.00 0.00 87 1015.0
20260505235006 60 66 2.0 6.0 0.00 0.00 0.00 87 1015.1
20260505234506 60 121 3.0 8.0 0.00 0.00 0.00 87 1015.0
20260505234004 60 118 4.0 8.0 0.00 0.00 0.00 87 1015.1
20260505233503 60 111 5.0 8.0 0.00 0.00 0.00 88 1015.1
20260505233003 60 105 6.0 8.0 0.00 0.00 0.00 89 1015.1
20260505232503 61 109 0.0 0.0 0.00 0.00 0.00 89 1015.2
20260505232002 60 281 0.0 0.0 0.00 0.00 0.00 89 1015.2
20260505231502 61 281 0.0 0.0 0.00 0.00 0.00 90 1015.1
20260505231100 61 281 0.0 0.0 0.00 0.00 0.00 90 1015.1
20260505231002 61 281 0.0 0.0 0.00 0.00 0.00 90 1015.2
20260505230603 61 281 0.0 0.0 0.00 0.00 0.00 90 1015.1
20260505230059 61 281 0.0 0.0 0.00 0.00 0.00 90 1015.1
20260505225558 61 281 0.0 0.0 0.00 0.00 0.00 90 1015.1
20260505225058 61 281 0.0 0.0 0.00 0.00 0.00 90 1015.1
20260505224559 61 281 0.0 0.0 0.00 0.00 0.00 89 1015.1
20260505224057 61 281 0.0 0.0 0.00 0.00 0.00 89 1015.1
20260505223558 61 281 0.0 0.0 0.00 0.00 0.00 89 1015.1
20260505223106 61 281 0.0 0.0 0.00 0.00 0.00 89 1015.0
20260505222600 61 281 0.0 0.0 0.00 0.00 0.00 90 1015.0
20260505222101 62 281 0.0 0.0 0.00 0.00 0.00 90 1015.0
20260505221600 62 281 0.0 0.0 0.00 0.00 0.00 89 1014.9
20260505221057 62 281 0.0 0.0 0.00 0.00 0.00 90 1015.0
20260505220556 62 281 0.0 0.0 0.00 0.00 0.00 90 1015.0
20260505220056 62 281 0.0 0.0 0.00 0.00 0.00 90 1015.0
20260505215556 62 281 0.0 0.0 0.00 0.00 0.00 90 1015.0
20260505215056 62 281 0.0 0.0 0.00 0.00 0.00 90 1014.9
20260505214616 62 281 0.0 0.0 0.00 0.00 0.00 90 1014.9
20260505214056 62 281 0.0 2.0 0.00 0.00 0.00 90 1015.0
20260505213601 62 281 0.0 3.0 0.00 0.00 0.00 90 1015.0
20260505213102 62 281 1.0 3.0 0.00 0.00 0.00 90 1014.9
20260505212555 62 281 0.0 2.0 0.00 0.00 0.00 90 1014.8
20260505212055 62 281 0.0 2.0 0.00 0.00 0.00 90 1014.8
20260505211606 62 281 1.0 2.0 0.00 0.00 0.00 90 1014.8
20260505211055 62 281 0.0 1.0 0.00 0.00 0.00 90 1014.8
20260505210555 62 281 0.0 1.0 0.00 0.00 0.00 90 1014.7
20260505210055 62 281 0.0 1.0 0.00 0.00 0.00 90 1014.7
20260505205554 62 281 0.0 1.0 0.00 0.00 0.00 91 1014.7
20260505205053 62 281 0.0 1.0 0.00 0.00 0.00 91 1014.7
20260505204554 62 281 0.0 1.0 0.00 0.00 0.00 90 1014.7
20260505204053 61 281 0.0 2.0 0.00 0.00 0.00 90 1014.7
20260505203553 61 281 1.0 4.0 0.00 0.00 0.00 90 1014.8
20260505203054 61 281 2.0 4.0 0.00 0.00 0.00 90 1014.8
20260505202554 62 281 1.0 4.0 0.00 0.00 0.00 90 1014.8
20260505202052 62 281 1.0 3.0 0.00 0.00 0.00 90 1014.8
20260505201555 61 281 1.0 4.0 0.00 0.00 0.00 90 1014.8
20260505201053 62 281 2.0 4.0 0.00 0.00 0.00 89 1014.8
20260505200552 62 281 1.0 4.0 0.00 0.00 0.00 89 1014.7
20260505200059 62 281 2.0 4.0 0.00 0.00 0.00 89 1014.6
20260505195551 62 281 2.0 7.0 0.00 0.00 0.00 89 1014.6
20260505195052 62 305 4.0 7.0 0.00 0.00 0.00 88 1014.5
20260505194554 63 277 2.0 5.0 0.00 0.00 0.00 88 1014.3
20260505194051 63 263 2.0 4.0 0.00 0.00 0.00 87 1014.2
20260505193550 63 263 2.0 4.0 0.00 0.00 0.00 86 1014.3
20260505193051 64 263 2.0 4.0 0.00 0.00 0.00 87 1014.3
20260505192551 64 263 1.0 4.0 0.00 0.00 0.00 88 1014.3
20260505192053 64 263 1.0 4.0 0.00 0.00 0.00 88 1014.3
20260505191551 64 263 0.0 4.0 0.00 0.00 0.00 88 1014.3
20260505191051 64 263 1.0 4.0 0.00 0.00 0.00 89 1014.3
20260505190549 63 263 2.0 6.0 0.00 0.00 0.00 89 1014.5
20260505190052 63 279 2.0 5.0 0.00 0.00 0.00 89 1014.4
20260505185550 63 296 1.0 5.0 0.00 0.00 0.00 89 1014.6